Current weather by "City, St" or "zip code"  
 
Advertise Here

Current Conditions: Port Townsend Jefferson County International Airport, WA

Fair


63.0 F

Last Updated on Jun 18 2021, 4:55 pm PDT
Humidity: 68%
Wind Speed: NW 10.4 G 16.1 mph
Barometer 30.08 in
Dewpoint: 51.8 F
Visibility: 10.00 mi
Precip: --
Heat Index: NA
Wind Chill: 62 F
Current conditions at:

Port Townsend Jefferson County International Airport, WA (K0S9)

Lat: 48.05517 Lon: 122.81159

Local Radar Image active severe weather and emergency alerts image image weather storm and storm spotter reports image weather observation monitoring service image
Local
Radar
Active
Alerts
Storm Reports Obs
Monitoring

Sign-up For Email & Text Message Weather Alert Notification Services


Advertise Here

Observation History for Port Townsend Jefferson County International Airport, WA


Time Wind
(mph)
Vis
(mi)
Weather Precip (in) Temperature (F) Relative
Humidity
Wind
Chill
(F)
Heat
Index
(F)
Pressure
Air Dwpt altimeter
(in)
sea level
(mb)
Rmks
4:55 pm PDT NW 10.4 G 16.1 10.00 Fair -- 63.0 51.8 68% 62 NA 30.08 M
3:55 pm PDT NW 11.5 G 18.4 10.00 Fair -- 63.0 51.8 68% 62 NA 30.10 M
1:55 pm PDT NW 15.0 G 20.7 10.00 Fair -- 63.0 51.8 68% 61 NA 30.11 M
12:55 pm PDT NW 10.4 10.00 Fair -- 63.0 51.8 68% 62 NA 30.12 M
11:55 am PDT NW 10.4 G 20.7 10.00 Fair -- 63.0 50.0 64% 62 NA 30.12 M
10:55 am PDT NW 11.5 10.00 Fair -- 63.0 51.8 68% 62 NA 30.13 M
9:55 am PDT NW 9.2 G 17.3 10.00 Fair -- 61.0 50.0 68% 60 NA 30.13 M
8:55 am PDT W 13.8 10.00 Fair -- 59.0 48.2 68% 56 NA 30.13 M
7:55 am PDT W 11.5 G 18.4 10.00 Fair -- 59.0 48.2 68% 57 NA 30.13 M
6:55 am PDT W 8.1 G 16.1 10.00 Fair -- 55.0 48.2 77% 53 NA 30.13 M
5:55 am PDT W 8.1 G 18.4 10.00 Fair -- 55.0 46.4 72% 53 NA 30.11 M
4:55 am PDT W 11.5 10.00 Fair -- 55.0 44.6 67% 52 NA 30.11 M
3:35 am PDT W 6.9 10.00 Fair -- 57.0 44.6 63% 56 NA 30.10 M
2:55 am PDT W 10.4 10.00 Fair -- 57.0 44.6 63% 55 NA 30.10 M
1:55 am PDT NW 9.2 10.00 Fair -- 59.0 46.4 63% 57 NA 30.10 M
12:55 am PDT NW 6.9 10.00 Fair -- 59.0 46.4 63% 58 NA 30.11 M
11:55 pm PDT 8.1 10.00 Fair -- 61.0 46.4 59% 60 NA 30.11 M
10:55 pm PDT NW 10.4 10.00 Fair -- 61.0 46.4 59% 60 NA 30.11 M
9:55 pm PDT NW 12.7 10.00 Fair -- 61.0 48.2 63% 59 NA 30.10 M
8:55 pm PDT NW 8.1 10.00 Fair -- 61.0 46.4 59% 60 NA 30.10 M
7:35 pm PDT NW 6.9 G 13.8 10.00 Fair -- 64.0 46.4 52% NA NA 30.11 M
6:55 pm PDT NW 9.2 10.00 Fair -- 64.0 44.6 49% NA NA 30.12 M
4:55 pm PDT 6.9 G 15.0 10.00 Fair -- 68.0 46.4 46% NA NA 30.27 M
5:55 pm PDT NW 8.1 G 15.0 10.00 Fair -- 66.0 46.4 49% NA NA 30.14 M

Regional Weather Observation


Port Angeles Coast Guard Air Station, WA (KNOW)

Fair and Breezy
59.0 F

Friday Harbor Airport, WA (KFHR)

Fair
64.0 F

Whidbey Island Naval Air Station - Ault Field, WA (KNUW)

Mostly Cloudy
62.0 F

Port Angeles Fairchild International Airport, WA (KCLM)

Fair
60.0 F

Eastsound, Orcas Island Airport, WA (KORS)

Fair
68.0 F

Burlington/Mount Vernon, Skagit Regional Airport, WA (KBVS)

Fair with Haze
73.0 F
Advertise Here

Advertise Here